User: anonymous   Login
Location: Unspecified
(0.0000°N, 0.0000°E)
Time: 11:08:21
(UTC+00:00)
Language:

GALILEO 8 (264) - Orbit

View from above orbital plane
View from above orbital plane
View from above satellite
View from above satellite

Ground track
Ground track

The orbit data is extracted from the following two-line orbital elements,

1 40545U 15017B   22272.11046889 -.00000075  00000-0  00000-0 0  9997
2 40545  56.8331  18.5559 0003833 209.1937 150.8033  1.70475637  9118
Epoch (UTC): 29 September 2022 02:39:04
Eccentricity: 0.0003833
inclination: 56.8331°
perigee height: 23210 km
apogee height: 23233 km
right ascension of ascending node: 18.5559°
argument of perigee: 209.1937°
revolutions per day: 1.70475637
mean anomaly at epoch: 150.8033°
orbit number at epoch: 911

The dashed part of the orbit path shows where the satellite is in the earth's shadow,  

DLR